Regional Weather Roundup
Issued by NWS

Home | Current Version | Previous Version | Text Only | Print | Product List | Glossary Off
Versions: 1 2 3 4 5 6 7 8 9 10 11 12 13 14 15 16 17 18 19 20 21 22 23 24 25 26 27 28 29 30 31 32 33 34 35 36 37 38 39 40 41 42 43 44 45 46 47 48 49 50

000
ASUS43 KLOT 162008
RWRIL

ILLINOIS REGIONAL WEATHER ROUNDUP
NATIONAL WEATHER SERVICE CHICAGO/ROMEOVILLE IL
200 PM CST TUE JAN 16 2018

NOTE: "FAIR" INDICATES FEW OR NO CLOUDS BELOW 12,000 FEET WITH NO
SIGNIFICANT WEATHER AND/OR OBSTRUCTIONS TO VISIBILITY.

* THESE STATIONS ARE NOT UNDER NWS QUALITY CONTROL. THEY ALSO MAY NOT
  REPORT WEATHER SUCH AS PRECIPITATION OR FOG.

ILZ001-002-007-009-015-016-024-162100-
NORTHWEST ILLINOIS

CITY           SKY/WX    TMP DP  RH WIND       PRES   REMARKS
MOLINE         FLURRIES  14   7  73 W13       30.58R WCI   0
STERLING*      FAIR      23  12  62 W9        30.54S WCI  13
SAVANNA*       FAIR      19  10  67 W8        30.55S WCI   9
$$

ILZ003-004-008-010-011-017-018-162100-
NORTH CENTRAL ILLINOIS

CITY           SKY/WX    TMP DP  RH WIND       PRES   REMARKS
ROCKFORD       FAIR      20  10  65 NW13      30.50S WCI   7
FREEPORT*      FAIR      18   9  69 NW9       30.52S WCI   6
ROCHELLE*      FAIR      19  11  72 NW12      30.50S WCI   6
DE KALB*       FAIR      18  12  77 NW13      30.46S WCI   5
PERU*          FAIR      14   8  75 W13       30.53S WCI   0
$$

ILZ005-006-012>014-019>023-162100-
NORTHEAST ILLINOIS

CITY           SKY/WX    TMP DP  RH WIND       PRES   REMARKS
CHICAGO-OHARE  PTSUNNY   24  12  60 N13       30.43S WCI  12
CHICAGO-MIDWAY FAIR      24  13  62 NW13      30.44S WCI  12
AURORA         FAIR      19  12  74 NW15      30.47S WCI   5
LANSING*       CLOUDY    24  18  80 NW10      30.44R WCI  13
JOLIET*        FAIR      21  14  73 W10       30.48R WCI  10
WAUKEGAN       PTSUNNY   27  11  51 N8        30.43S WCI  19
DUPAGE AIRPORT FAIR      21  11  65 NW10      30.44S WCI  10
KANKAKEE*      CLOUDY    17  10  77 W15G22    30.48S WCI   2
WHEELING       CLOUDY    24  12  60 N9        30.45S WCI  14
MORRIS*        FAIR      17  11  77 W14       30.48S WCI   3
ROMEOVILLE*    FAIR      19  13  75 W13       30.46S WCI   6
NORTHERLY ISL    N/A     24  15  68 W7          N/A  WCI  16
$$

LMZ740>746-162100-
SOUTHERN LAKE MICHIGAN

STATION/POSITION SKY/WX   TEMP    WIND        PRES    VSBY  WAVE
                          AIR SEA DIR/SP/G                  HT/PER
                          (F)     (DEG/KT/KT) (MB)    (MI)  (FT/S)
HARRISON CRIB              23     330/ 15/ 18   N/A
BURNHAM HARBOR             24     340/  7/ 15   N/A
CALUMET HARBOR             24     290/ 10/ 14 1029.6S
BURNS HARBOR               23     330/ 15/ 21 1030.1F
MICHIGAN CITY                     150/  2/  4   N/A
$$

ILZ025>027-034>036-040-047-049-050-058-095>099-162100-
WEST-CENTRAL ILLINOIS

CITY           SKY/WX    TMP DP  RH WIND       PRES   REMARKS
QUINCY         MIX PCPN   7  -1  70 W13       30.63F WCI  -9
GALESBURG*     LGT SNOW  11   7  82 W14       30.58S WCI  -4
MACOMB*        SUNNY     11   6  78 W13       30.63R WCI  -4
JACKSONVILLE*  FLURRIES   8   1  72 W13       30.61F WCI  -8
PITTSFIELD*    LGT SNOW   7  -1  69 W14       30.64S WCI  -9
$$

ILZ028>032-037-038-041>044-048-051>054-059>061-162100-
CENTRAL ILLINOIS

CITY           SKY/WX    TMP DP  RH WIND       PRES   REMARKS
PONTIAC        LGT SNOW  14  11  87 W16       30.52S WCI  -2
BLOOMINGTON    FLURRIES  13   5  70 W16       30.52F WCI  -3
DECATUR        CLOUDY     6   1  80 W14       30.57S HAZE    WCI -11
PEORIA         FLURRIES  12   5  73 W10       30.57F WCI  -1
LACON*         LGT SNOW  15   9  79 NW10      30.54S WCI   2
LINCOLN*       CLOUDY     9   2  74 W8        30.58S WCI  -3
SPRINGFIELD    CLOUDY     8   0  69 W14       30.60F WCI  -8
TAYLORVILLE    CLOUDY     7  -1  71 W9        30.60S WCI  -7
$$

ILZ033-039-045-046-055>057-062-063-162100-
EAST-CENTRAL ILLINOIS

CITY           SKY/WX    TMP DP  RH WIND       PRES   REMARKS
CHAMPAIGN      LGT SNOW   6   2  83 W16       30.54R FOG     WCI -12
DANVILLE*      LGT SNOW   7   1  76 W13       30.50S WCI  -9
RANTOUL*       LGT SNOW  10   6  81 W15       30.52S WCI  -6
MATTOON        CLOUDY     5  -1  76 W10       30.56S WCI -10
PARIS*         LGT SNOW   5   0  77 W13       30.57S WCI -11
$$

ILZ079-100>102-162100-
SOUTHWEST ILLINOIS

CITY           SKY/WX    TMP DP  RH WIND       PRES   REMARKS
ALTON          MOSUNNY    9   1  72 W14       30.64S WCI  -8
BELLEVILLE     CLOUDY    11   0  59 W8G16     30.63S WCI   0
CAHOKIA*       SUNNY     11  -1  58 NW10      30.65F WCI  -3
SPARTA*        CLOUDY    10   2  71 NW6       30.64S WCI   0
$$

ILZ064>066-069>071-074>076-080>082-084>086-088>090-092>094-162100-
SOUTH-CENTRAL ILLINOIS

CITY           SKY/WX    TMP DP  RH WIND       PRES   REMARKS
CARBONDALE     CLOUDY     9   0  67 NW14      30.65S WCI  -7
CAIRO*         FAIR      11  -1  59 W8        30.65S WCI   0
EFFINGHAM*     FLURRIES   8   0  70 W10       30.61S WCI  -6
MARION         CLOUDY     9  -2  61 NW12      30.64F WCI  -6
MT. VERNON     FLURRIES  10   0  63 W7        30.63F WCI  -1
CENTRALIA*     FLURRIES   9   1  72 W12       30.62S WCI  -6
SALEM*         FLURRIES   9   1  69 W13       30.61S WCI  -7
METROPOLIS*    FAIR      12  -3  53 W3        30.64S
$$

ILZ067-068-072-073-078-083-087-091-162100-
SOUTHEAST ILLINOIS

CITY           SKY/WX    TMP DP  RH WIND       PRES   REMARKS
LAWRENCEVILLE  CLOUDY     6  -1  73 W10       30.62S WCI  -9
FLORA*         LGT SNOW   8  -1  67 W7        30.62S WCI  -3
FAIRFIELD*     FLURRIES   8  -1  66 W3        30.61F
HARRISBURG*    CLOUDY    11  -1  60 W3        30.64F
ROBINSON*      LGT SNOW   5  -2  73 W8        30.61F WCI  -8
CARMI*         PTSUNNY    8  -1  65 W12       30.63S WCI  -7
$$

ABBREVIATIONS USED IN REMARKS
   TC - TEMPERATURE IN CELSIUS
  WCI - WIND CHILL INDEX
   HX - HEAT INDEX
  VSB - VISIBILITY
$$





USA.gov is the U.S. government's official web portal to all federal, state and local government web resources and services.